Hourly Data Report for October 15, 2014

All times are specified in Local Standard Time (LST). Add 1 hour to adjust for Daylight Saving Time where and when it is observed.

IQALUIT CLIMATE
NUNAVUT

63°44'50.000" N
68°32'40.000" W
33.50 m
2402592
71321
XFB

Download Data

Hourly Data (October 2014)
Hourly Data Report for October 15, 2014
Temp Definition
°C
Dew Point Temp Definition
°C
Rel Hum Definition
%
Wind Dir Definition
10's deg

Wind Spd Definition
km/h
Visibility Definition
km
Stn Press Definition
kPa
Hmdx Definition


Wind Chill Definition


Weather Definition


TIME
00:00 -5.7 -6.9 91 34 14   100.32   -11 LegendNANA
01:00 -5.6 -7.1 89 33 8   100.34   -9 LegendNANA
02:00 -6.5 -7.8 90 35 10   100.36   -11 LegendNANA
03:00 -6.9 -8.2 91 32 9   100.36   -11 LegendNANA
04:00 -7.9 -9.0 91 32 17   100.38   -15 LegendNANA
05:00 -8.3 -9.5 91 32 18   100.41   -15 LegendNANA
06:00 -7.0 -8.3 91 32 14   100.45   -13 LegendNANA
07:00 -5.8 -7.1 90 32 12   100.49   -11 LegendNANA
08:00 -5.1 -7.1 85 35 21   100.54   -12 LegendNANA
09:00 -4.2 -6.7 83 35 19   100.58   -10 LegendNANA
10:00 -4.6 -6.8 85 32 10   100.62   -9 LegendNANA
11:00 -3.9 -6.5 82 32 9   100.66   -8 LegendNANA
12:00 -3.4 -6.6 78 30 6   100.70   -6 LegendNANA
13:00 -3.1 -6.1 79 33 2   100.74   -4 LegendNANA
14:00 -2.6 -5.3 82 17 5   100.78   -5 LegendNANA
15:00 -2.6 -5.6 80 16 5   100.83   -5 LegendNANA
16:00 -2.4 -5.1 82 16 6   100.86   -5 LegendNANA
17:00 -2.3 -4.3 86 13 8   100.90   -5 LegendNANA
18:00 -2.6 -5.9 78 30 18   100.93   -8 LegendNANA
19:00 -3.0 -6.3 78 32 15   100.98   -8 LegendNANA
20:00 -2.8 -6.5 76 31 15   101.00   -8 LegendNANA
21:00 -2.9 -6.5 76 33 6   101.01   -5 LegendNANA
22:00 -2.5 -6.4 74 28 8   101.03   -6 LegendNANA
23:00 -3.3 -7.0 76 34 5   101.04   -5 LegendNANA

Notes on Data Quality.

Legend

  • E = Estimated
  • M = Missing
  • NA = Not Available
  • ‡ = Partner data that is not subject to review by the National Climate Archives
Date modified: